Russellville, AR

8:12 PM CDT on August 31, 2016 (GMT -0500)
Russellville Regional

Weather History for KRUE - April, 2013

Change the Weather History Date:

Thursday, April 18, 2013

  Actual Average (KHOT) Record (KHOT)
Temperature  
Mean Temperature 62 °F -  
Max Temperature 79 °F 75 °F 92 °F (1987)
Min Temperature 46 °F 52 °F 33 °F (1999)
Degree Days  
Heating Degree Days 2    
Growing Degree Days 12 (Base 50)    
Moisture  
Dew Point 52 °F    
Average Humidity 79    
Maximum Humidity 94    
Minimum Humidity 56    
Precipitation  
Precipitation 0.50 in - - ()
Sea Level Pressure  
Sea Level Pressure 29.76 in    
Wind  
Wind Speed 11 mph (WNW)    
Max Wind Speed 18 mph    
Max Gust Speed 33 mph    
Visibility 9 miles    
Events Rain , Thunderstorm    
Averages and records for this station are not official NWS values.
T = Trace of Precipitation, MM = Missing Value Source: NWS Daily Summary

Daily Weather History Graph

Daily Weather History Graph

Search for Another Location

Airport or City:

Trip Planner

Search our weather history database for the weather conditions in past years. The results will help you decide how hot, cold, wet, or windy it might be!

Date:

Astronomy

Apr. 18, 2013 Rise Set
Actual Time 6:35 AM CDT 7:47 PM CDT
Civil Twilight 6:09 AM CDT 8:14 PM CDT
Nautical Twilight 5:38 AM CDT 8:45 PM CDT
Astronomical Twilight 5:05 AM CDT 9:18 PM CDT
Moon 12:50 PM CDT (4/18) 2:00 AM CDT (4/18)
Length of Visible Light 14h 04m
Length of Day
13h 11m
First Quarter, 52% of the Moon is Illuminated
Apr 18
First Quarter
Apr 25
Full
May 2
Last Quarter
May 9
New
May 17
First Quarter

Hourly Weather History & Observations

Time (CDT) Temp. Dew Point Humidity Pressure Visibility Wind Dir Wind Speed Gust Speed Precip Events Conditions
12:53 AM 79.0 °F 64.9 °F 62% 29.69 in 10.0 mi Variable 6.9 mph - N/A   Mostly Cloudy
1:53 AM 78.1 °F 64.9 °F 64% 29.65 in 10.0 mi South 10.4 mph 16.1 mph N/A   Overcast
2:53 AM 78.1 °F 64.9 °F 64% 29.61 in 10.0 mi South 13.8 mph 33.4 mph N/A   Partly Cloudy
3:53 AM 78.1 °F 64.9 °F 64% 29.62 in 10.0 mi South 10.4 mph 25.3 mph N/A   Overcast
4:53 AM 77.0 °F 64.0 °F 64% 29.60 in 10.0 mi South 11.5 mph 21.9 mph N/A   Partly Cloudy
5:53 AM 77.0 °F 64.0 °F 64% 29.60 in 10.0 mi South 11.5 mph 20.7 mph N/A   Mostly Cloudy
6:53 AM 77.0 °F 64.9 °F 66% 29.63 in 10.0 mi South 10.4 mph 18.4 mph N/A   Mostly Cloudy
7:53 AM 75.9 °F 66.0 °F 71% 29.63 in 10.0 mi Variable 6.9 mph 16.1 mph N/A   Overcast
8:53 AM 73.9 °F 66.9 °F 79% 29.65 in 10.0 mi South 8.1 mph - 0.00 in   Overcast
9:29 AM 64.4 °F 60.8 °F 88% 29.70 in 10.0 mi WNW 10.4 mph 16.1 mph 0.00 in Rain , Thunderstorm Light Rain
9:37 AM 64.4 °F 60.8 °F 88% 29.72 in 1.5 mi WNW 11.5 mph 19.6 mph 0.15 in Rain , Thunderstorm Heavy Rain
9:40 AM 64.4 °F 60.8 °F 88% 29.72 in 0.8 mi NW 9.2 mph - 0.28 in Rain , Thunderstorm Heavy Thunderstorms and Rain
9:48 AM 62.6 °F 60.8 °F 94% 29.71 in 1.0 mi NW 11.5 mph - 0.31 in Rain , Thunderstorm Light Thunderstorms and Rain
9:53 AM 63.0 °F 61.0 °F 93% 29.70 in 3.0 mi NW 5.8 mph - 0.33 in Rain , Thunderstorm Thunderstorms and Rain
9:56 AM 62.6 °F 60.8 °F 94% 29.73 in 2.5 mi NW 6.9 mph - 0.01 in Rain Heavy Rain
10:06 AM 62.6 °F 60.8 °F 94% 29.73 in 2.5 mi WNW 8.1 mph 17.3 mph 0.06 in Rain Heavy Rain
10:23 AM 62.6 °F 59.0 °F 88% 29.72 in 9.0 mi WNW 11.5 mph - 0.10 in Rain , Thunderstorm Light Rain
10:38 AM 60.8 °F 57.2 °F 88% 29.74 in 10.0 mi WNW 16.1 mph 20.7 mph 0.10 in Rain Light Rain
10:53 AM 57.0 °F 54.0 °F 89% 29.73 in 10.0 mi NW 9.2 mph - 0.10 in   Overcast
11:10 AM 55.4 °F 51.8 °F 88% 29.76 in 10.0 mi WNW 15.0 mph 31.1 mph N/A   Overcast
11:18 AM 55.4 °F 51.8 °F 88% 29.76 in 10.0 mi WNW 16.1 mph 25.3 mph 0.00 in Rain Light Rain
11:32 AM 53.6 °F 50.0 °F 88% 29.78 in 10.0 mi West 11.5 mph 25.3 mph 0.00 in Rain Light Rain
11:43 AM 53.6 °F 48.2 °F 82% 29.77 in 10.0 mi West 11.5 mph 23.0 mph 0.00 in Rain Light Rain
11:53 AM 53.1 °F 48.9 °F 86% 29.74 in 10.0 mi WNW 12.7 mph 20.7 mph 0.01 in Rain Light Rain
12:37 PM 51.8 °F 48.2 °F 88% 29.80 in 10.0 mi West 8.1 mph 18.4 mph 0.02 in Rain Light Rain
12:53 PM 52.0 °F 48.0 °F 86% 29.74 in 10.0 mi NW 8.1 mph - 0.03 in Rain Light Rain
1:42 PM 51.8 °F 48.2 °F 88% 29.76 in 10.0 mi West 15.0 mph 24.2 mph 0.02 in Rain Light Rain
1:53 PM 51.1 °F 46.0 °F 83% 29.75 in 10.0 mi West 17.3 mph 27.6 mph 0.02 in   Overcast
2:53 PM 48.9 °F 45.0 °F 86% 29.81 in 10.0 mi West 12.7 mph 19.6 mph 0.00 in   Overcast
3:19 PM 50.0 °F 46.4 °F 87% 29.79 in 10.0 mi West 15.0 mph 24.2 mph 0.00 in   Overcast
3:37 PM 50.0 °F 44.6 °F 82% 29.79 in 10.0 mi West 16.1 mph 26.5 mph 0.00 in   Overcast
3:53 PM 48.9 °F 44.1 °F 83% 29.86 in 10.0 mi West 10.4 mph 21.9 mph 0.00 in   Overcast
4:37 PM 48.2 °F 42.8 °F 82% 29.80 in 10.0 mi WNW 18.4 mph 27.6 mph 0.01 in   Overcast
4:53 PM 48.0 °F 43.0 °F 83% 29.80 in 10.0 mi WNW 11.5 mph 23.0 mph 0.01 in   Overcast
5:51 PM 48.2 °F 41.0 °F 76% 29.84 in 10.0 mi NW 12.7 mph 19.6 mph N/A   Overcast
5:53 PM 48.9 °F 41.0 °F 74% 29.83 in 10.0 mi WNW 16.1 mph 19.6 mph N/A   Overcast
6:53 PM 48.0 °F 39.9 °F 74% 29.84 in 10.0 mi WNW 11.5 mph 18.4 mph 0.00 in   Overcast
7:53 PM 48.0 °F 37.0 °F 66% 29.89 in 10.0 mi NW 11.5 mph 19.6 mph N/A   Overcast
8:53 PM 46.9 °F 36.0 °F 66% 29.92 in 10.0 mi NW 11.5 mph 20.7 mph N/A   Overcast
9:53 PM 46.9 °F 33.1 °F 59% 29.95 in 10.0 mi WNW 12.7 mph 20.7 mph N/A   Overcast
10:53 PM 46.9 °F 34.0 °F 61% 29.96 in 10.0 mi WNW 12.7 mph 17.3 mph N/A   Overcast
11:53 PM 46.9 °F 32.0 °F 56% 29.96 in 10.0 mi WNW 11.5 mph 23.0 mph N/A   Overcast